Location: Alfortville
(48.8058°N, 2.4204°E)
Time: 04:35:57
(UTC+00:00)

Cosmos 1980 Rocket - Pass Details

Date: 27 May 2022
Orbit: 827 x 851 km, 71.0° (Epoch: 06 July)

Event Time Altitude Azimuth Distance (km) Brightness Sun altitude
Rises 21:50:42 0° 236° (SW) 3,378 5.3 -15.1°
Reaches altitude 10° 21:53:21 10° 245° (WSW) 2,451 4.6 -15.3°
Maximum altitude 21:58:27 35° 310° (NW) 1,343 3.9 -15.7°
Drops below altitude 10° 22:03:38 10° 16° (NNE) 2,478 5.3 -16.1°
Sets 22:06:20 0° 25° (NNE) 3,421 6.0 -16.2°
